• In Hungary
  • List of Countries
  • For 7 days
  • Water Temperature
  • Satellite Maps
  • Weather Map
  • News
  • Weather Widgets
  • user-avatar
    Login

    Hourly Weather Antwerp

    Today, 17 October, Tuesday

    Time Temperature Precipitation Wind Pressure Humidity
    00:00 +17°C° 0 mm 3 mps 765 mmHg 85%
    01:00 +16°C° 0 mm 3 mps 765 mmHg 83%
    02:00 +16°C° 0 mm 3 mps 765 mmHg 82%
    03:00 +14°C° 0 mm 3 mps 765 mmHg 80%
    04:00 +14°C° 0 mm 3 mps 765 mmHg 80%
    05:00 +13°C° 0 mm 3 mps 765 mmHg 80%
    06:00 +13°C° 0 mm 2 mps 765 mmHg 79%
    07:00 +14°C° 0 mm 3 mps 765 mmHg 75%
    08:00 +16°C° 0 mm 3 mps 765 mmHg 70%
    09:00 +17°C° 0 mm 3 mps 765 mmHg 66%
    10:00 +18°C° 0 mm 3 mps 765 mmHg 63%
    11:00 +19°C° 0 mm 3 mps 765 mmHg 61%
    12:00 +18°C° 0 mm 2 mps 765 mmHg 59%
    13:00 +19°C° 0 mm 2 mps 764 mmHg 59%
    14:00 +19°C° 0 mm 2 mps 764 mmHg 59%
    15:00 +20°C° 0 mm 1 mps 763 mmHg 60%
    16:00 +19°C° 0 mm 1 mps 763 mmHg 64%
    17:00 +16°C° 0 mm 1 mps 763 mmHg 68%
    18:00 +15°C° 0 mm 1 mps 763 mmHg 72%
    19:00 +15°C° 0 mm 1 mps 763 mmHg 74%
    20:00 +14°C° 0 mm 1 mps 762 mmHg 75%
    21:00 +14°C° 0 mm 1 mps 762 mmHg 77%
    22:00 +14°C° 0 mm 1 mps 762 mmHg 78%
    23:00 +14°C° 0 mm 2 mps 762 mmHg 80%

    Tomorrow, 18 October, Wednesday

    Time Temperature Precipitation Wind Pressure Humidity
    00:00 +14°C° 0 mm 2 mps 761 mmHg 82%
    01:00 +13°C° 0 mm 2 mps 761 mmHg 83%
    02:00 +13°C° 0 mm 2 mps 761 mmHg 85%
    03:00 +13°C° 0 mm 2 mps 760 mmHg 87%
    04:00 +13°C° 0 mm 2 mps 760 mmHg 87%
    05:00 +13°C° 0 mm 2 mps 760 mmHg 88%
    06:00 +12°C° 0 mm 2 mps 759 mmHg 89%
    07:00 +13°C° 0 mm 3 mps 759 mmHg 83%
    08:00 +14°C° 0 mm 3 mps 759 mmHg 78%
    09:00 +16°C° 0 mm 3 mps 759 mmHg 73%
    10:00 +18°C° 0 mm 3 mps 759 mmHg 69%
    11:00 +19°C° 0 mm 3 mps 759 mmHg 66%
    12:00 +20°C° 0 mm 3 mps 759 mmHg 62%
    13:00 +21°C° 0 mm 2 mps 758 mmHg 64%
    14:00 +21°C° 0 mm 2 mps 758 mmHg 66%
    15:00 +21°C° 0 mm 2 mps 758 mmHg 68%
    16:00 +20°C° 0 mm 2 mps 758 mmHg 73%
    17:00 +18°C° 0 mm 2 mps 758 mmHg 79%
    18:00 +17°C° 0 mm 2 mps 758 mmHg 84%
    19:00 +17°C° 0 mm 2 mps 758 mmHg 86%
    20:00 +16°C° 0 mm 2 mps 758 mmHg 87%
    21:00 +16°C° 0 mm 3 mps 758 mmHg 88%
    22:00 +15°C° 0 mm 2 mps 758 mmHg 88%
    23:00 +15°C° 0 mm 2 mps 758 mmHg 87%

    Day after tomorrow, 19 October, Thursday

    Time Temperature Precipitation Wind Pressure Humidity
    00:00 +14°C° 0 mm 2 mps 758 mmHg 87%
    01:00 +14°C° 0 mm 2 mps 757 mmHg 87%
    02:00 +14°C° 0 mm 2 mps 757 mmHg 87%
    03:00 +13°C° 0 mm 2 mps 757 mmHg 87%
    04:00 +13°C° 0 mm 2 mps 757 mmHg 88%
    05:00 +13°C° 0 mm 2 mps 757 mmHg 89%
    06:00 +12°C° 0 mm 2 mps 756 mmHg 89%
    07:00 +13°C° 0 mm 3 mps 756 mmHg 83%
    08:00 +16°C° 0 mm 3 mps 756 mmHg 78%
    09:00 +17°C° 0 mm 4 mps 756 mmHg 72%
    10:00 +18°C° 0 mm 4 mps 756 mmHg 68%
    11:00 +20°C° 0 mm 5 mps 756 mmHg 65%
    12:00 +21°C° 0 mm 5 mps 755 mmHg 61%
    13:00 +21°C° 0 mm 5 mps 755 mmHg 62%
    14:00 +21°C° 0 mm 5 mps 755 mmHg 62%
    15:00 +21°C° 0 mm 5 mps 754 mmHg 63%
    16:00 +20°C° 0 mm 5 mps 754 mmHg 65%
    17:00 +19°C° 0 mm 5 mps 754 mmHg 67%
    18:00 +17°C° 0 mm 5 mps 755 mmHg 69%
    19:00 +17°C° 0 mm 5 mps 755 mmHg 72%
    20:00 +16°C° 0 mm 5 mps 755 mmHg 75%
    21:00 +16°C° 0 mm 5 mps 756 mmHg 78%
    22:00 +15°C° 0 mm 5 mps 756 mmHg 80%
    23:00 +15°C° 0 mm 5 mps 756 mmHg 81%

    20 October, Friday

    Time Temperature Precipitation Wind Pressure Humidity
    00:00 +14°C° 0 mm 4 mps 756 mmHg 83%
    01:00 +14°C° 0 mm 5 mps 756 mmHg 82%
    02:00 +14°C° 0 mm 5 mps 756 mmHg 82%
    03:00 +14°C° 0 mm 5 mps 756 mmHg 81%
    04:00 +14°C° 0 mm 5 mps 756 mmHg 82%
    05:00 +14°C° 0 mm 5 mps 756 mmHg 82%
    06:00 +14°C° 0 mm 6 mps 755 mmHg 83%
    07:00 +14°C° 0.3 mm 6 mps 756 mmHg 82%
    08:00 +14°C° 0.3 mm 7 mps 756 mmHg 82%
    09:00 +15°C° 0.3 mm 7 mps 756 mmHg 81%
    10:00 +15°C° 0.1 mm 8 mps 756 mmHg 78%
    11:00 +16°C° 0.1 mm 8 mps 756 mmHg 74%
    12:00 +16°C° 0.1 mm 8 mps 756 mmHg 71%
    13:00 +16°C° 0.1 mm 7 mps 756 mmHg 70%
    14:00 +17°C° 0.1 mm 6 mps 756 mmHg 69%
    15:00 +17°C° 0.1 mm 6 mps 757 mmHg 68%
    16:00 +16°C° 0 mm 5 mps 757 mmHg 70%
    17:00 +15°C° 0 mm 5 mps 757 mmHg 73%
    18:00 +14°C° 0 mm 4 mps 758 mmHg 76%
    19:00 +13°C° 0 mm 4 mps 758 mmHg 77%
    20:00 +13°C° 0 mm 4 mps 758 mmHg 79%
    21:00 +12°C° 0 mm 3 mps 758 mmHg 80%
    22:00 +12°C° 0 mm 4 mps 757 mmHg 81%
    23:00 +13°C° 0 mm 4 mps 757 mmHg 81%

    21 October, Saturday

    Time Temperature Precipitation Wind Pressure Humidity
    00:00 +13°C° 0 mm 4 mps 757 mmHg 82%
    01:00 +13°C° 0 mm 5 mps 756 mmHg 83%
    02:00 +14°C° 0 mm 5 mps 756 mmHg 84%
    03:00 +14°C° 0 mm 5 mps 756 mmHg 86%
    04:00 +14°C° 0 mm 6 mps 755 mmHg 84%
    05:00 +15°C° 0 mm 6 mps 755 mmHg 82%
    06:00 +15°C° 0 mm 7 mps 755 mmHg 81%
    07:00 +15°C° 0.4 mm 7 mps 755 mmHg 82%
    08:00 +15°C° 0.4 mm 7 mps 755 mmHg 84%
    09:00 +15°C° 0.4 mm 7 mps 755 mmHg 86%
    10:00 +15°C° 0.1 mm 7 mps 755 mmHg 80%
    11:00 +15°C° 0.1 mm 7 mps 756 mmHg 75%
    12:00 +16°C° 0.1 mm 8 mps 756 mmHg 70%
    13:00 +16°C° 0 mm 8 mps 756 mmHg 66%
    14:00 +16°C° 0 mm 8 mps 755 mmHg 63%
    15:00 +16°C° 0 mm 8 mps 755 mmHg 59%
    16:00 +15°C° 0 mm 8 mps 756 mmHg 59%
    17:00 +15°C° 0 mm 8 mps 756 mmHg 59%
    18:00 +13°C° 0 mm 8 mps 756 mmHg 59%
    19:00 +13°C° 0 mm 8 mps 756 mmHg 59%
    20:00 +12°C° 0 mm 8 mps 756 mmHg 59%
    21:00 +12°C° 0 mm 9 mps 756 mmHg 59%
    22:00 +12°C° 0 mm 9 mps 756 mmHg 61%
    23:00 +11°C° 0 mm 9 mps 757 mmHg 63%

    22 October, Sunday

    Time Temperature Precipitation Wind Pressure Humidity
    00:00 +11°C° 0 mm 9 mps 757 mmHg 66%
    01:00 +11°C° 0 mm 9 mps 757 mmHg 68%
    02:00 +10°C° 0 mm 8 mps 757 mmHg 71%
    03:00 +10°C° 0 mm 8 mps 757 mmHg 73%
    04:00 +10°C° 0 mm 8 mps 757 mmHg 73%
    05:00 +10°C° 0 mm 8 mps 758 mmHg 73%
    06:00 +10°C° 0 mm 7 mps 758 mmHg 73%
    07:00 +10°C° 0.1 mm 8 mps 759 mmHg 71%
    08:00 +11°C° 0.1 mm 8 mps 759 mmHg 70%
    09:00 +11°C° 0.1 mm 8 mps 760 mmHg 69%
    10:00 +11°C° 0.2 mm 8 mps 760 mmHg 66%
    11:00 +12°C° 0.2 mm 8 mps 761 mmHg 62%
    12:00 +12°C° 0.2 mm 8 mps 761 mmHg 59%
    13:00 +12°C° 0.1 mm 8 mps 762 mmHg 58%
    14:00 +12°C° 0.1 mm 7 mps 762 mmHg 57%
    15:00 +13°C° 0.1 mm 6 mps 762 mmHg 56%
    16:00 +11°C° 0.1 mm 6 mps 763 mmHg 59%
    17:00 +10°C° 0.1 mm 5 mps 763 mmHg 62%
    18:00 +10°C° 0.1 mm 5 mps 764 mmHg 66%
    19:00 +10°C° 0.1 mm 5 mps 764 mmHg 69%
    20:00 +9°C° 0.1 mm 5 mps 764 mmHg 72%
    21:00 +9°C° 0.1 mm 5 mps 765 mmHg 75%
    22:00 +9°C° 0 mm 5 mps 765 mmHg 77%
    23:00 +8°C° 0 mm 5 mps 765 mmHg 79%
    Show more